Вернуться в каталог

STARLINK-31524

АктивенСвязьVLEO
NORAD 59506·PAYLOAD·🇺🇸 United States

Запущен Apr 13, 2024 с Cape Canaveral Space Force Station

Loading…

Ближайшие Пролёты (ближайшие 24 часа)

TLE

СвежийSource: CelesTrak SupGP

Эпоха: Sep 14, 2026, 21:30 UTC

1 59506C 24071Y   26257.89631944 -.00012783  00000+0 -46295-3 0  2573
2 59506  43.0018 344.2642 0001571 269.2961 329.4992 15.27589238    16

Отслеживайте STARLINK-31524 в реальном времени с AllMySat

Download on the App Store